CW5917 Weather Reports


Display with metric or nautical units.
time (UTC)temp
F
wind
direction
speed
MPH
gust
MPH
rain 1hr
in
rain 24hr
in
rain mn
in
humidity
%
barometer
mb
20260906005023 73 78 4.0 7.0 0.00 0.01 0.01 86 1017.3
20260906004555 73 19 2.0 5.0 0.00 0.01 0.01 87 1017.3
20260906004025 73 74 2.0 6.0 0.00 0.01 0.01 87 1017.5
20260906003521 73 53 3.0 5.0 0.00 0.01 0.01 87 1017.3
20260906003028 73 30 1.0 3.0 0.00 0.01 0.01 87 1017.2
20260906002524 73 30 1.0 4.0 0.00 0.01 0.01 86 1017.3
20260906002039 74 30 1.0 5.0 0.00 0.01 0.01 85 1017.3
20260906001533 74 30 2.0 5.0 0.00 0.01 0.01 85 1017.3
20260906001027 74 59 2.0 6.0 0.00 0.01 0.01 85 1017.2
20260906000520 75 22 3.0 7.0 0.00 0.01 0.01 84 1017.3
20260906000028 75 51 3.0 6.0 0.00 0.01 0.01 84 1017.2
20260905235521 75 24 3.0 6.0 0.00 0.01 0.01 83 1017.2
20260905235031 75 44 4.0 7.0 0.00 0.01 0.01 82 1017.2
20260905234519 75 74 3.0 8.0 0.00 0.01 0.01 82 1017.3
20260905234035 76 46 4.0 10.0 0.00 0.01 0.01 81 1017.2
20260905233519 76 41 4.0 7.0 0.00 0.01 0.01 79 1017.3
20260905232530 77 55 2.0 10.0 0.00 0.01 0.01 78 1017.4
20260905232020 77 44 4.0 9.0 0.00 0.01 0.01 79 1017.3
20260905231538 78 59 4.0 8.0 0.00 0.01 0.01 78 1017.3
20260905231033 78 22 4.0 8.0 0.00 0.01 0.01 77 1017.3
20260905230530 78 35 4.0 13.0 0.00 0.01 0.01 77 1017.3
20260905230030 78 61 4.0 13.0 0.00 0.01 0.01 77 1017.2
20260905225522 78 47 4.0 7.0 0.00 0.01 0.01 77 1017.2
20260905225018 78 67 2.0 6.0 0.00 0.01 0.01 79 1017.3
20260905224556 78 44 4.0 6.0 0.00 0.01 0.01 79 1017.3
20260905224048 77 38 2.0 9.0 0.00 0.01 0.01 80 1017.4
20260905223525 77 38 4.0 9.0 0.00 0.01 0.01 79 1017.4
20260905223038 77 40 4.0 12.0 0.00 0.01 0.01 78 1017.3
20260905222533 78 15 5.0 13.0 0.00 0.01 0.01 76 1017.3
20260905222017 78 87 8.0 16.0 0.00 0.01 0.01 75 1017.3
20260905221528 79 40 8.0 16.0 0.00 0.01 0.01 75 1017.3
20260905221022 79 48 5.0 12.0 0.00 0.01 0.01 77 1017.1
20260905220532 79 88 5.0 12.0 0.00 0.01 0.01 76 1016.9
20260905220031 79 53 7.0 10.0 0.00 0.01 0.01 77 1016.9
20260905215554 79 17 4.0 10.0 0.00 0.01 0.01 76 1016.8
20260905215025 79 40 5.0 12.0 0.00 0.01 0.01 78 1016.9
20260905214541 79 13 5.0 12.0 0.00 0.01 0.01 77 1017.0
20260905214020 79 330 5.0 10.0 0.00 0.01 0.01 77 1017.1
20260905213533 79 34 4.0 10.0 0.00 0.01 0.01 77 1017.0
20260905213050 78 313 4.0 8.0 0.00 0.01 0.01 77 1017.0
20260905212525 78 302 5.0 8.0 0.00 0.01 0.01 76 1017.1
20260905212021 79 10 5.0 9.0 0.00 0.01 0.01 75 1017.0
20260905211520 79 334 5.0 9.0 0.00 0.01 0.01 77 1017.2
20260905211029 79 17 4.0 9.0 0.00 0.01 0.01 76 1017.1
20260905210544 79 327 5.0 9.0 0.00 0.01 0.01 76 1017.1
20260905210029 78 350 5.0 9.0 0.00 0.01 0.01 76 1017.2
20260905205545 78 348 3.0 10.0 0.00 0.01 0.01 76 1017.2
20260905205017 79 5 6.0 10.0 0.00 0.01 0.01 75 1017.4
20260905204537 79 325 5.0 9.0 0.00 0.01 0.01 74 1017.3
20260905204048 79 360 4.0 9.0 0.00 0.01 0.01 75 1017.2
20260905203524 78 326 6.0 9.0 0.00 0.01 0.01 75 1017.3
20260905203050 78 22 4.0 8.0 0.00 0.01 0.01 75 1017.4
20260905202541 78 34 5.0 8.0 0.00 0.01 0.01 75 1017.3
20260905202036 79 355 4.0 14.0 0.00 0.01 0.01 75 1017.4
20260905201534 79 32 4.0 14.0 0.00 0.01 0.01 75 1017.2
20260905201029 79 113 7.0 12.0 0.00 0.01 0.01 73 1017.2
20260905200525 79 21 7.0 12.0 0.00 0.01 0.01 74 1017.1
20260905200016 80 46 3.0 13.0 0.00 0.01 0.01 75 1017.1
20260905195532 80 43 6.0 13.0 0.00 0.01 0.01 76 1017.2
20260905195016 80 40 6.0 12.0 0.00 0.01 0.01 79 1017.1
20260905194527 79 360 4.0 14.0 0.00 0.01 0.01 78 1017.1
20260905194022 80 63 8.0 14.0 0.00 0.01 0.01 78 1017.2
20260905193553 79 52 7.0 14.0 0.00 0.01 0.01 79 1017.3
20260905193029 79 24 7.0 14.0 0.00 0.01 0.01 79 1017.3
20260905192524 78 333 6.0 15.0 0.00 0.01 0.01 81 1017.2
20260905192039 78 10 7.0 14.0 0.00 0.01 0.01 81 1017.2
20260905191535 78 63 9.0 14.0 0.00 0.01 0.01 81 1017.3
20260905191031 78 15 8.0 12.0 0.00 0.01 0.01 80 1017.3
20260905190523 78 355 6.0 12.0 0.00 0.01 0.01 80 1017.3
20260905190037 78 36 5.0 13.0 0.00 0.01 0.01 80 1017.3
20260905185530 79 39 7.0 13.0 0.00 0.01 0.01 78 1017.3
20260905185023 80 338 4.0 11.0 0.00 0.01 0.01 79 1017.3
20260905184520 79 11 4.0 10.0 0.00 0.01 0.01 80 1017.2
20260905184017 79 326 5.0 12.0 0.00 0.01 0.01 81 1017.3
20260905183538 78 44 7.0 12.0 0.00 0.01 0.01 81 1017.4
20260905183035 78 46 3.0 9.0 0.00 0.01 0.01 80 1017.3
20260905182521 78 28 5.0 11.0 0.00 0.01 0.01 81 1017.5
20260905182055 78 40 6.0 11.0 0.00 0.01 0.01 82 1017.5
20260905181538 77 35 4.0 9.0 0.00 0.01 0.01 85 1017.5
20260905181048 76 42 3.0 9.0 0.00 0.01 0.01 86 1017.5
20260905180543 76 36 5.0 9.0 0.00 0.01 0.01 86 1017.7
20260905180021 76 360 3.0 12.0 0.00 0.01 0.01 86 1017.9
20260905175551 75 5 7.0 12.0 0.00 0.01 0.01 86 1017.9
20260905175017 75 15 4.0 8.0 0.00 0.01 0.01 86 1017.7
20260905174547 76 67 1.0 6.0 0.00 0.01 0.01 86 1017.9
20260905174026 75 67 2.0 6.0 0.00 0.01 0.01 87 1017.9
20260905173518 75 66 2.0 8.0 0.00 0.01 0.01 87 1017.8
20260905173020 75 35 2.0 9.0 0.00 0.01 0.01 87 1017.8
20260905172534 75 350 5.0 9.0 0.00 0.01 0.01 86 1017.8
20260905172031 75 28 4.0 10.0 0.00 0.01 0.01 87 1017.7
20260905171539 75 24 6.0 10.0 0.00 0.01 0.01 87 1017.8
20260905171052 75 9 5.0 9.0 0.00 0.01 0.01 87 1017.8
20260905170523 74 23 4.0 9.0 0.00 0.01 0.01 88 1017.7
20260905170024 74 5 4.0 11.0 0.00 0.01 0.01 89 1017.7
20260905165520 74 22 4.0 11.0 0.00 0.01 0.01 90 1017.7
20260905165017 73 46 4.0 12.0 0.00 0.01 0.01 90 1017.8
20260905164521 73 49 6.0 12.0 0.00 0.01 0.01 91 1017.8
20260905164036 73 5 6.0 10.0 0.00 0.01 0.01 91 1017.8
20260905163518 73 46 3.0 9.0 0.00 0.01 0.01 91 1017.8
20260905163028 73 57 5.0 10.0 0.00 0.01 0.01 91 1017.9
20260905162522 73 62 4.0 11.0 0.00 0.01 0.01 92 1018.0
20260905162017 73 50 8.0 11.0 0.00 0.01 0.01 92 1018.0
20260905161520 73 30 5.0 11.0 0.00 0.01 0.01 93 1018.1
20260905161016 73 42 6.0 12.0 0.00 0.01 0.01 93 1018.0
20260905160533 73 49 5.0 12.0 0.00 0.01 0.01 93 1017.8
20260905160029 73 360 4.0 10.0 0.00 0.02 0.01 94 1017.8
20260905155525 73 42 7.0 10.0 0.00 0.02 0.01 94 1017.8
20260905155056 73 41 7.0 10.0 0.00 0.02 0.01 94 1017.7
20260905154530 73 69 3.0 7.0 0.00 0.02 0.01 95 1017.7
20260905154022 73 27 2.0 8.0 0.00 0.02 0.01 95 1017.6
20260905153539 72 34 4.0 9.0 0.00 0.02 0.01 95 1017.6
20260905153038 72 37 3.0 9.0 0.00 0.02 0.01 95 1017.6
20260905152519 72 50 2.0 9.0 0.00 0.02 0.01 95 1017.6
20260905152035 72 52 4.0 9.0 0.00 0.02 0.01 95 1017.6
20260905151533 72 74 2.0 9.0 0.00 0.02 0.01 96 1017.6
20260905150523 72 84 3.0 9.0 0.00 0.02 0.01 96 1017.4
20260905150037 72 26 3.0 9.0 0.00 0.02 0.01 95 1017.4
20260905145557 72 70 4.0 9.0 0.00 0.02 0.01 95 1017.4
20260905145035 72 46 3.0 10.0 0.00 0.02 0.01 96 1017.2
20260905144522 72 61 5.0 10.0 0.00 0.02 0.01 96 1017.1
20260905144037 72 42 3.0 6.0 0.00 0.02 0.01 96 1017.0
20260905143533 71 17 2.0 9.0 0.00 0.02 0.01 96 1017.0
20260905143020 71 90 2.0 10.0 0.00 0.02 0.01 96 1016.9
20260905142533 71 39 3.0 10.0 0.00 0.02 0.01 96 1016.9
20260905142019 71 20 6.0 10.0 0.00 0.02 0.01 96 1016.6
20260905141537 71 68 4.0 10.0 0.00 0.02 0.01 96 1016.7
20260905141056 71 53 4.0 10.0 0.00 0.02 0.01 96 1016.7
20260905140537 71 64 4.0 7.0 0.00 0.02 0.01 96 1016.7
20260905140054 71 39 4.0 7.0 0.00 0.02 0.01 96 1016.7
20260905135538 71 60 4.0 10.0 0.00 0.02 0.01 96 1016.5
20260905135034 71 26 3.0 10.0 0.00 0.02 0.01 96 1016.6
20260905134523 71 55 4.0 6.0 0.00 0.02 0.01 96 1016.4
20260905134036 71 33 3.0 12.0 0.00 0.02 0.01 96 1016.4
20260905133536 71 94 5.0 12.0 0.00 0.02 0.01 96 1016.3
20260905133018 71 72 2.0 10.0 0.00 0.02 0.01 96 1016.4
20260905132533 71 48 5.0 10.0 0.00 0.02 0.01 96 1016.4
20260905132029 71 71 5.0 8.0 0.00 0.02 0.01 96 1016.3
20260905131520 71 34 4.0 8.0 0.00 0.02 0.01 96 1016.4
20260905131017 71 21 4.0 8.0 0.00 0.02 0.01 96 1016.3
20260905130519 71 50 3.0 7.0 0.00 0.02 0.01 96 1016.2
20260905130033 71 40 3.0 8.0 0.00 0.02 0.01 96 1016.2
20260905125528 70 14 2.0 8.0 0.00 0.02 0.01 96 1016.2
20260905125043 70 49 2.0 9.0 0.00 0.02 0.01 96 1016.1
20260905124531 71 40 4.0 10.0 0.00 0.02 0.01 96 1016.2
20260905124020 71 42 3.0 10.0 0.00 0.02 0.01 96 1016.2
20260905123533 71 44 5.0 9.0 0.00 0.02 0.01 96 1016.2
20260905123034 71 48 4.0 10.0 0.00 0.02 0.01 96 1016.3
20260905122527 71 38 4.0 10.0 0.00 0.02 0.01 96 1016.4
20260905122021 71 360 3.0 6.0 0.00 0.02 0.01 96 1016.4
20260905121519 71 24 3.0 6.0 0.00 0.02 0.01 96 1016.1
20260905121031 71 57 3.0 8.0 0.00 0.02 0.01 96 1015.9
20260905120518 71 30 4.0 6.0 0.00 0.02 0.01 96 1015.8
20260905120037 71 24 4.0 8.0 0.00 0.02 0.01 96 1015.6
20260905115017 71 53 4.0 6.0 0.00 0.02 0.01 96 1015.5
20260905114519 71 43 4.0 8.0 0.00 0.02 0.01 96 1015.4
20260905114031 71 27 4.0 8.0 0.00 0.02 0.01 96 1015.3
20260905113537 71 19 4.0 6.0 0.00 0.02 0.01 96 1015.3
20260905113033 71 348 3.0 6.0 0.00 0.02 0.01 96 1015.1
20260905112546 71 22 3.0 5.0 0.00 0.02 0.01 96 1014.9
20260905112023 71 28 1.0 4.0 0.00 0.02 0.01 96 1014.9
20260905111533 71 28 2.0 5.0 0.00 0.02 0.01 96 1014.9
20260905111026 71 31 3.0 5.0 0.00 0.02 0.01 96 1014.8
20260905110520 71 28 2.0 3.0 0.00 0.02 0.01 96 1014.6
20260905110032 71 28 1.0 3.0 0.00 0.02 0.01 96 1014.5
20260905105525 71 28 0.0 1.0 0.00 0.02 0.01 96 1014.4
20260905105022 71 28 0.0 1.0 0.00 0.02 0.01 96 1014.5
20260905104520 71 28 0.0 0.0 0.00 0.02 0.01 95 1014.4
20260905104032 71 28 0.0 0.0 0.00 0.02 0.01 95 1014.3
20260905103538 71 28 0.0 0.0 0.00 0.02 0.01 95 1014.3
20260905103035 71 28 0.0 0.0 0.00 0.02 0.01 95 1014.2
20260905102549 71 28 0.0 0.0 0.00 0.02 0.01 95 1014.3
20260905102023 71 28 0.0 0.0 0.00 0.02 0.01 95 1014.3
20260905101537 71 28 0.0 0.0 0.00 0.02 0.01 95 1014.4
20260905101031 71 28 0.0 1.0 0.00 0.02 0.01 95 1014.4
20260905100536 71 28 0.0 1.0 0.01 0.02 0.01 95 1014.5
20260905100022 71 28 0.0 2.0 0.01 0.02 0.01 95 1014.5
20260905095537 71 28 1.0 2.0 0.01 0.02 0.01 95 1014.4
20260905095034 71 28 0.0 0.0 0.01 0.02 0.01 95 1014.4
20260905094519 71 28 0.0 0.0 0.01 0.02 0.01 95 1014.3
20260905094017 71 28 0.0 0.0 0.01 0.02 0.01 95 1014.4
20260905093532 71 28 0.0 0.0 0.01 0.02 0.01 95 1014.4
20260905093050 72 28 0.0 0.0 0.01 0.02 0.01 95 1014.4
20260905092031 72 28 0.0 0.0 0.01 0.02 0.01 95 1014.4
20260905091533 72 28 0.0 0.0 0.01 0.02 0.01 95 1014.4
20260905091029 72 28 0.0 0.0 0.01 0.02 0.01 95 1014.4
20260905090526 72 28 0.0 0.0 0.00 0.01 0.00 95 1014.3
20260905090035 72 28 0.0 0.0 0.00 0.02 0.00 95 1014.4
20260905085521 72 28 0.0 0.0 0.00 0.02 0.00 95 1014.4
20260905085034 72 28 0.0 0.0 0.00 0.02 0.00 95 1014.5
20260905084531 72 28 0.0 0.0 0.00 0.02 0.00 95 1014.5
20260905084047 72 28 0.0 0.0 0.00 0.02 0.00 95 1014.6
20260905083523 72 28 0.0 0.0 0.00 0.02 0.00 95 1014.7
20260905083049 72 28 0.0 0.0 0.00 0.02 0.00 95 1014.8
20260905082523 72 28 0.0 0.0 0.00 0.02 0.00 95 1014.7
20260905082018 72 28 0.0 0.0 0.00 0.02 0.00 95 1014.7
20260905081526 72 28 0.0 0.0 0.00 0.02 0.00 95 1014.6
20260905081019 72 28 0.0 0.0 0.00 0.02 0.00 95 1014.6
20260905080535 72 28 0.0 0.0 0.00 0.02 0.00 95 1014.6
20260905080031 72 28 0.0 0.0 0.00 0.02 0.00 95 1014.6
20260905075525 72 28 0.0 2.0 0.00 0.02 0.00 95 1014.7
20260905075040 72 28 0.0 2.0 0.00 0.02 0.00 95 1014.6
20260905074528 72 28 1.0 5.0 0.00 0.02 0.00 95 1014.6
20260905074024 72 28 2.0 5.0 0.00 0.02 0.00 95 1014.5
20260905073536 72 46 2.0 4.0 0.00 0.02 0.00 95 1014.6
20260905073058 72 5 2.0 3.0 0.00 0.02 0.00 95 1014.6
20260905072531 72 5 1.0 3.0 0.00 0.02 0.00 95 1014.7
20260905072026 72 5 1.0 4.0 0.00 0.02 0.00 95 1014.6
20260905071532 72 5 0.0 4.0 0.00 0.02 0.00 95 1014.6
20260905071025 72 35 2.0 3.0 0.00 0.02 0.00 95 1014.8
20260905070521 72 341 2.0 3.0 0.00 0.02 0.00 95 1014.5
20260905070032 72 341 2.0 3.0 0.00 0.02 0.00 95 1014.5
20260905065547 72 341 1.0 3.0 0.00 0.02 0.00 95 1014.5
20260905065024 72 341 1.0 2.0 0.00 0.02 0.00 95 1014.5
20260905064528 72 341 0.0 1.0 0.00 0.02 0.00 94 1014.3
20260905064022 72 341 0.0 2.0 0.00 0.02 0.00 94 1014.3
20260905063519 72 341 1.0 3.0 0.00 0.02 0.00 94 1014.4
20260905063027 73 341 1.0 3.0 0.00 0.02 0.00 94 1014.4
20260905062544 73 173 0.0 0.0 0.00 0.02 0.00 95 1014.4
20260905062019 73 173 0.0 0.0 0.00 0.02 0.00 94 1014.3
20260905061534 74 173 0.0 0.0 0.00 0.02 0.00 95 1014.3
20260905061038 74 173 0.0 0.0 0.00 0.02 0.00 95 1014.3
20260905060532 73 173 0.0 0.0 0.00 0.02 0.00 95 1014.3
20260905060033 73 173 0.0 1.0 0.00 0.02 0.00 95 1014.3
20260905055528 73 173 0.0 3.0 0.00 0.02 0.00 95 1014.4
20260905055018 74 173 1.0 3.0 0.00 0.02 0.00 95 1014.4
20260905054536 74 44 0.0 3.0 0.00 0.02 0.00 95 1014.4
20260905054030 74 44 2.0 3.0 0.00 0.02 0.00 95 1014.4
20260905053526 74 44 0.0 1.0 0.00 0.02 0.00 95 1014.4
20260905053036 74 44 0.0 0.0 0.00 0.02 0.00 95 1014.5
20260905052521 74 44 0.0 0.0 0.00 0.02 0.00 95 1014.6
20260905052019 74 44 0.0 0.0 0.00 0.02 0.00 94 1014.5
20260905051521 74 44 0.0 0.0 0.00 0.02 0.00 94 1014.4
20260905051036 74 44 0.0 0.0 0.00 0.02 0.00 95 1014.5
20260905050532 74 44 0.0 0.0 0.00 0.02 0.00 95 1014.5
20260905050033 75 44 0.0 0.0 0.00 0.02 0.02 95 1014.4
20260905045524 75 44 0.0 0.0 0.00 0.02 0.02 95 1014.5
20260905045020 75 44 0.0 0.0 0.00 0.02 0.02 95 1014.5
20260905044528 75 44 0.0 1.0 0.00 0.02 0.02 95 1014.5
20260905044043 75 44 0.0 1.0 0.00 0.02 0.02 95 1014.6
20260905043518 75 44 0.0 1.0 0.00 0.02 0.02 95 1014.5
20260905043020 75 44 0.0 1.0 0.00 0.02 0.02 95 1014.4
20260905042556 75 44 0.0 1.0 0.00 0.02 0.02 95 1014.5
20260905042018 75 44 0.0 2.0 0.00 0.02 0.02 95 1014.5
20260905041538 75 44 0.0 2.0 0.00 0.02 0.02 94 1014.7
20260905041030 75 44 0.0 0.0 0.00 0.02 0.02 94 1014.7
20260905040524 75 44 0.0 0.0 0.00 0.02 0.02 95 1014.6
20260905040029 75 44 0.0 0.0 0.00 0.02 0.02 94 1014.6
20260905035523 75 44 0.0 0.0 0.00 0.02 0.02 94 1014.6
20260905035019 75 44 0.0 1.0 0.00 0.02 0.02 94 1014.4
20260905034526 76 44 0.0 2.0 0.00 0.02 0.02 94 1014.5
20260905034037 76 44 1.0 3.0 0.00 0.02 0.02 94 1014.5
20260905033519 76 44 1.0 2.0 0.00 0.02 0.02 94 1014.5
20260905033035 76 44 0.0 1.0 0.00 0.02 0.02 93 1014.4
20260905032533 77 44 0.0 2.0 0.00 0.02 0.02 93 1014.3
20260905032018 77 44 0.0 2.0 0.00 0.02 0.02 93 1014.2
20260905031546 77 44 1.0 3.0 0.00 0.02 0.02 93 1014.4
20260905031021 77 44 0.0 3.0 0.00 0.02 0.02 93 1014.4
20260905030530 77 44 0.0 5.0 0.00 0.02 0.02 93 1014.4
20260905030029 78 38 4.0 5.0 0.00 0.02 0.02 93 1014.7
20260905025523 77 21 3.0 5.0 0.00 0.02 0.02 93 1014.7
20260905025018 78 21 1.0 4.0 0.00 0.02 0.02 93 1014.5
20260905024519 78 20 2.0 4.0 0.00 0.02 0.02 93 1014.5
20260905024039 77 18 3.0 4.0 0.00 0.02 0.02 92 1014.5
20260905023535 77 5 0.0 0.0 0.00 0.02 0.02 92 1014.4
20260905023034 78 5 0.0 2.0 0.00 0.02 0.02 92 1014.3
20260905022529 78 5 1.0 2.0 0.00 0.02 0.02 91 1014.3
20260905022024 78 5 0.0 1.0 0.00 0.02 0.02 91 1014.4
20260905021526 79 5 0.0 4.0 0.00 0.02 0.02 91 1014.4
20260905021023 79 5 1.0 4.0 0.00 0.02 0.02 91 1014.4
20260905020517 79 5 1.0 5.0 0.00 0.02 0.02 90 1014.4
20260905020047 79 5 1.0 5.0 0.00 0.02 0.02 91 1014.4
20260905015523 79 5 0.0 2.0 0.00 0.02 0.02 90 1014.5
20260905015019 79 5 0.0 2.0 0.00 0.02 0.02 90 1014.4
20260905014527 79 5 0.0 1.0 0.00 0.02 0.02 89 1014.3
20260905014042 80 5 0.0 2.0 0.00 0.02 0.02 89 1014.4
20260905013536 80 5 1.0 2.0 0.00 0.02 0.02 89 1014.4
20260905013035 80 5 1.0 6.0 0.00 0.02 0.02 89 1014.3
20260905012531 80 5 2.0 6.0 0.00 0.02 0.02 89 1014.3
20260905012020 80 343 3.0 6.0 0.00 0.02 0.02 89 1014.2
20260905011538 80 5 3.0 5.0 0.00 0.02 0.02 89 1014.2
20260905011034 80 17 1.0 4.0 0.00 0.02 0.02 89 1014.0
20260905010531 80 17 0.0 4.0 0.00 0.02 0.02 89 1013.8
20260905010020 81 28 2.0 4.0 0.00 0.02 0.02 88 1013.7
20260905005535 81 318 0.0 4.0 0.00 0.02 0.02 88 1013.7